Find Starlink 36388

NORAD ID: 68037 Int'l Des: 2026-040 Owner: SPXS Country: US Constellation: starlink operational
LEOCIRCULARRETROGRADE

Live Position

Loading 3D Globe...

About Starlink 36388

Description loading...

Upcoming Passes

Passes for default location (London). Set your location on the main map for personalized predictions.

Altitude History

Loading altitude history...

Two-Line Element Set

1 68037U 26040Z 26106.84854701 .00015875 00000-0 48002-3 0 9991
2 68037 97.2868 56.4404 0002280 87.8522 272.2983 15.34293167 7318
Epoch: Apr 16, 2026 • Age: 7 hours

Current Status

Altitude 471.2 km
Velocity 7.64 km/s
Sub-Earth Point 56.60°N, 157.22°E
Launch Date Mar 1, 2026
Age 0.1 years
Type internet

Technical Details

Classification Payload
Mass 575.00 kg
Dry Mass 530.00 kg
Total Mass 575.00 kg
Length 0.30 m
Diameter 4.10 m
Span 29.00 m
Shape Box + pan
Manufacturer SPXS
Bus Type Starlink V2MO
Phase Status In Orbit
Owner/State SPXS/US

Most Searched